{"data":{"norad_id":68154,"epoch":"2026-05-25T00:58:27.876288Z","epoch_age_seconds":74688,"freshness":"FRESH","line1":"1 68154U 26049N   26145.04060042  .00002529  00000+0  80604-4 0  9998","line2":"2 68154  97.2833 166.6239 0000152 184.7517 175.3724 15.33455834 11341","mean_motion":15.33455834,"eccentricity":1.52e-5,"inclination_deg":97.2833,"raan_deg":166.6239,"arg_perigee_deg":184.7517,"mean_anomaly_deg":175.3724,"bstar":8.0604e-5,"rev_number":1134,"period_min":93.90554120126,"perigee_km":465.40691685759,"apogee_km":465.61496375497,"semimajor_km":6843.6479403063,"source":"CELESTRAK","updated_at":"2026-05-25T13:38:21.849004Z"}}